Location: Unspecified
(41.1637°N, 24.2901°E)
Time: 21:10:16
(UTC+02:00)

ISS - Pass Details

Date: 30 May 2023
Orbit: 411 x 419 km, 51.6° (Epoch: 06 June)

Event Time Altitude Azimuth Distance (km) Brightness Sun altitude
Rises 21:12:17 0° 299° (WNW) 2,354 1.6 -13.4°
Reaches altitude 10° 21:14:28 10° 290° (WNW) 1,489 0.1 -13.7°
Maximum altitude 21:17:33 34° 223° (SW) 699 -2.7 -14.1°
Enters shadow 21:19:00 23° 175° (S) 935 -2.4 -14.3°
